Hurricane Symbol View the latest observations near Atlantic Potential Tropical Cyclone One.

Station SBLM4 - Saginaw Bay Light #1, MI Image indicating link to RSS feed of recent meteorological observations for station SBLM4


Conditions at SBLM4 as of
(6:00 pm EDT)
2200 GMT on 06/17/2024:
     

Click on the graph icon in the table below to see a time series plot of the last five days of that observation.

5-day plot - Wind Direction Wind Direction (WDIR): S ( 170 deg true )
5-day plot - Wind Speed Wind Speed (WSPD): 15.9 kts
5-day plot - Wind Gust Wind Gust (GST): 18.1 kts
5-day plot - Atmospheric Pressure Atmospheric Pressure (PRES):29.90 in
5-day plot - Pressure Tendency Pressure Tendency (PTDY):-0.02 in ( Falling )
5-day plot - Air Temperature Air Temperature (ATMP): 75.2 °F
5-day plot - Wind Speed at 10 Meters Wind Speed at 10 meters (WSPD10M): 15.5 kts
5-day plot - Wind Speed at 20 Meters Wind Speed at 20 meters (WSPD20M): 15.5 kts
5-day plot -  Wind Speed, Wind Gust and Atmospheric Pressure Combined plot of Wind Speed, Gust, and Air Pressure
Previous observations
TIME
(EDT)
5-day plot - Wind Direction
WDIR
 
5-day plot - Wind Speed
WSPD
kts
5-day plot - Wind Gust
GST
kts
5-day plot - Wave Height
WVHT
ft
5-day plot - Dominant Wave Period
DPD
sec
5-day plot - Average Wave Period
APD
sec
5-day plot - Mean Wave Direction
MWD
 
5-day plot - Atmospheric Pressure
PRES
in
5-day plot - Pressure Tendency
PTDY
in
5-day plot - Air Temperature
ATMP
°F
5-day plot - Water Temperature
WTMP
°F
5-day plot - Dew Point
DEWP
°F
5-day plot - Salinity
SAL
psu
5-day plot - Visibility
VIS
nmi
5-day plot - Tide (above MLLW)
TIDE
ft
2024-06-17 05:50 pmSSE 17.1 20.0----29.91- 75.7-----
2024-06-17 05:40 pm S 19.0 21.0----29.91- 76.1-----
2024-06-17 05:30 pm S 17.1 19.0----29.91- 76.5-----
2024-06-17 05:20 pm S 18.1 18.1----29.91- 77.0-----
2024-06-17 05:10 pm S 18.1 20.0----29.91- 77.5-----
2024-06-17 05:00 pm S 19.0 22.0----29.91-0.02 78.1-----
2024-06-17 04:50 pm S 18.1 21.0----29.90- 78.4-----
2024-06-17 04:40 pm S 20.0 22.0----29.91- 78.4-----
2024-06-17 04:30 pmSSW 20.0 21.0----29.91- 78.1-----
2024-06-17 04:20 pmSSW 14.0 15.9----29.91- 80.4-----
2024-06-17 04:10 pmSSW 9.9 11.1----29.91- 84.2-----
2024-06-17 04:00 pmSSW 8.0 11.1----29.90-0.03 84.4-----
2024-06-17 03:50 pmSSW 9.9 14.0----29.91- 86.5-----
2024-06-17 03:40 pmSSW 7.0 12.0----29.91- 79.0-----
2024-06-17 03:30 pm SW 12.0 14.0----29.91- 83.7-----
2024-06-17 03:20 pm SW 9.9 11.1----29.92- 80.4-----
2024-06-17 03:10 pm SW 9.9 13.0----29.92- 81.0-----
2024-06-17 03:00 pm SW 13.0 14.0----29.92+0.00 83.1-----
2024-06-17 02:50 pm SW 12.0 14.0----29.92- 82.2-----
2024-06-17 02:40 pm SW 12.0 14.0----29.92- 82.0-----
2024-06-17 02:30 pm SW 12.0 13.0----29.92- 81.0-----
2024-06-17 02:20 pm SW 12.0 13.0----29.93- 80.8-----
2024-06-17 02:10 pm SW 12.0 13.0----29.93- 82.2-----
2024-06-17 02:00 pmSSW 9.9 12.0----29.93-0.01 80.1-----
2024-06-17 01:50 pmSSW 11.1 11.1----29.93- 79.9-----
2024-06-17 01:40 pmSSW 8.9 12.0----29.93- 79.7-----
2024-06-17 01:30 pmSSW 12.0 13.0----29.93- 80.4-----
2024-06-17 01:20 pm SW 12.0 14.0----29.93- 78.8-----
2024-06-17 01:10 pm SW 13.0 15.9----29.93- 79.0-----
2024-06-17 01:00 pm SW 14.0 15.9----29.93-0.01 78.3-----
2024-06-17 12:50 pm SW 14.0 15.0----29.93- 78.3-----
2024-06-17 12:40 pm SW 13.0 14.0----29.93- 77.2-----
2024-06-17 12:30 pm SW 14.0 17.1----29.92- 77.4-----
2024-06-17 12:20 pm SW 17.1 17.1----29.93- 78.4-----
2024-06-17 12:10 pm SW 15.0 15.9----29.92- 77.5-----
2024-06-17 12:00 pm SW 15.9 18.1----29.92-0.02 76.6-----
2024-06-17 11:50 am SW 15.9 18.1----29.92- 77.0-----
2024-06-17 11:40 am SW 15.9 18.1----29.92- 76.5-----
2024-06-17 11:30 am SW 15.9 18.1----29.92- 75.7-----
2024-06-17 11:20 am SW 17.1 18.1----29.93- 76.3-----
2024-06-17 11:10 am SW 13.0 17.1----29.93- 75.2-----
2024-06-17 11:00 am SW 15.9 19.0----29.94+0.01 76.1-----
2024-06-17 10:50 am SW 14.0 15.9----29.94- 75.2-----
2024-06-17 10:40 am SW 14.0 15.9----29.94- 74.8-----
2024-06-17 10:30 am SW 13.0 14.0----29.94- 73.9-----
2024-06-17 10:20 am SW 12.0 13.0----29.94- 72.7-----
2024-06-17 10:10 am SW 13.0 14.0----29.94- 72.7-----
2024-06-17 10:00 am SW 13.0 15.0----29.94+0.02 72.5-----
2024-06-17 09:50 am SW 14.0 15.0----29.94- 72.0-----
2024-06-17 09:40 am SW 14.0 15.9----29.94- 71.6-----
2024-06-17 09:30 am SW 15.0 17.1----29.94- 71.6-----
2024-06-17 09:20 amWSW 17.1 18.1----29.94- 71.4-----
2024-06-17 09:10 amWSW 15.0 18.1----29.94- 70.9-----
2024-06-17 09:00 am SW 15.0 17.1----29.94+0.03 71.2-----
2024-06-17 08:50 am SW 15.9 18.1----29.94- 71.2-----
2024-06-17 08:40 amSSW 17.1 19.0----29.94- 71.1-----
2024-06-17 08:30 amSSW 15.9 20.0----29.93- 70.7-----
2024-06-17 08:20 amSSW 20.0 22.0----29.93- 70.7-----
2024-06-17 08:10 amSSW 21.0 24.1----29.93- 70.7-----
2024-06-17 08:00 am S 21.0 25.1----29.93+0.03 70.7-----
2024-06-17 07:50 am S 22.0 24.1----29.92- 70.7-----
2024-06-17 07:40 am S 20.0 22.0----29.92- 70.5-----
2024-06-17 07:30 am S 18.1 21.0----29.92- 70.5-----
2024-06-17 07:20 amSSW 19.0 22.0----29.92- 70.5-----
2024-06-17 07:10 amSSW 19.0 21.0----29.92- 70.3-----
2024-06-17 07:00 amSSW 18.1 21.0----29.92+0.01 70.5-----
2024-06-17 06:50 amSSW 20.0 22.9----29.92- 70.5-----
2024-06-17 06:40 am S 19.0 21.0----29.92- 70.5-----
2024-06-17 06:30 amSSW 19.0 22.9----29.91- 70.7-----
2024-06-17 06:20 amSSW 19.0 21.0----29.92- 70.7-----
2024-06-17 06:10 amSSW 19.0 22.9----29.91- 70.9-----
2024-06-17 06:00 amSSW 20.0 24.1----29.91+0.02 70.7-----
2024-06-17 05:50 amSSW 21.0 24.1----29.91- 70.9-----
2024-06-17 05:40 amSSW 21.0 25.1----29.91- 71.4-----
2024-06-17 05:30 amSSW 19.0 22.0----29.91- 71.4-----
2024-06-17 05:20 amSSW 18.1 22.9----29.91- 71.6-----
2024-06-17 05:10 amSSW 19.0 22.9----29.91- 72.1-----
2024-06-17 05:00 amSSW 19.0 22.0----29.90+0.01 72.3-----
2024-06-17 04:50 amSSW 15.9 22.0----29.90- 72.3-----
2024-06-17 04:40 amSSW 20.0 24.1----29.90- 72.9-----
2024-06-17 04:30 amSSW 21.0 27.0----29.90- 73.6-----
2024-06-17 04:20 am SW 22.0 26.0----29.90- 74.1-----
2024-06-17 04:10 am SW 20.0 22.9----29.91- 73.9-----
2024-06-17 04:00 am SW 19.0 21.0----29.91+0.03 73.9-----
2024-06-17 03:50 amSSW 19.0 21.0----29.90- 73.9-----
2024-06-17 03:40 amSSW 20.0 22.0----29.90- 74.1-----
2024-06-17 03:30 amSSW 19.0 20.0----29.90- 74.1-----
2024-06-17 03:20 amSSW 19.0 20.0----29.90- 74.3-----
2024-06-17 03:10 amSSW 15.0 18.1----29.89- 73.4-----
2024-06-17 03:00 amSSW 15.9 17.1----29.89+0.03 73.6-----
2024-06-17 02:50 amSSW 15.9 17.1----29.89- 73.8-----
2024-06-17 02:40 amSSW 15.0 15.9----29.89- 73.6-----
2024-06-17 02:30 amSSW 14.0 14.0----29.89- 73.9-----
2024-06-17 02:20 amSSW 12.0 14.0----29.89- 74.3-----
2024-06-17 02:10 amSSW 14.0 15.9----29.89- 74.3-----
2024-06-17 02:00 amSSW 14.0 14.0----29.89+0.04 74.8-----
2024-06-17 01:50 amSSW 12.0 15.0----29.89- 74.7-----
2024-06-17 01:40 amSSW 14.0 17.1----29.89- 74.8-----
2024-06-17 01:30 amSSW 15.0 21.0----29.89- 75.6-----
2024-06-17 01:20 amSSW 17.1 20.0----29.89- 75.6-----
2024-06-17 01:10 amSSW 18.1 20.0----29.88- 75.7-----
2024-06-17 01:00 amSSW 18.1 20.0----29.88+0.03 75.6-----
2024-06-17 12:50 amSSW 18.1 20.0----29.87- 75.7-----
2024-06-17 12:40 am S 15.0 18.1----29.87- 75.0-----
2024-06-17 12:30 am S 17.1 19.0----29.87- 74.8-----
2024-06-17 12:20 am S 17.1 20.0----29.86- 75.0-----
2024-06-17 12:10 am S 17.1 20.0----29.86- 75.0-----
2024-06-17 12:00 am S 17.1 19.0----29.86-0.01 75.0-----
2024-06-16 11:50 pm S 17.1 21.0----29.86- 74.8-----
2024-06-16 11:40 pm S 18.1 20.0----29.86- 75.2-----
2024-06-16 11:30 pm S 17.1 19.0----29.85- 74.7-----
2024-06-16 11:20 pm S 18.1 19.0----29.85- 74.7-----
2024-06-16 11:10 pm S 18.1 19.0----29.85- 75.0-----
2024-06-16 11:00 pm S 17.1 18.1----29.85-0.01 75.4-----
2024-06-16 10:50 pm S 15.9 17.1----29.85- 75.4-----
2024-06-16 10:40 pm S 17.1 18.1----29.85- 75.7-----
2024-06-16 10:30 pm S 17.1 19.0----29.85- 75.6-----
2024-06-16 10:20 pm S 17.1 17.1----29.85- 75.4-----
2024-06-16 10:10 pm S 15.9 17.1----29.85- 75.2-----
2024-06-16 10:00 pm S 15.9 17.1----29.85-0.01 75.6-----
2024-06-16 09:50 pm S 15.9 17.1----29.85- 75.9-----
2024-06-16 09:40 pm S 15.9 17.1----29.86- 76.8-----
2024-06-16 09:30 pm S 15.9 17.1----29.85- 76.5-----
2024-06-16 09:20 pm S 15.0 15.9----29.86- 76.6-----
2024-06-16 09:10 pm S 13.0 14.0----29.86- 76.5-----
2024-06-16 09:00 pm S 12.0 13.0----29.87+0.00 77.0-----
2024-06-16 08:50 pm S 13.0 14.0----29.88- 77.7-----
2024-06-16 08:40 pm S 14.0 15.0----29.87- 77.7-----
2024-06-16 08:30 pm S 14.0 17.1----29.87- 77.5-----
2024-06-16 08:20 pm S 15.0 15.9----29.87- 77.7-----
2024-06-16 08:10 pm S 15.0 17.1----29.86- 77.2-----
2024-06-16 08:00 pm S 15.9 18.1----29.86-0.03 77.9-----
2024-06-16 07:50 pm S 17.1 18.1----29.86- 78.3-----
2024-06-16 07:40 pm S 15.9 18.1----29.85- 78.1-----
2024-06-16 07:30 pm S 19.0 21.0----29.85- 79.2-----
2024-06-16 07:20 pm S 17.1 20.0----29.85- 78.3-----
2024-06-16 07:10 pm S 18.1 19.0----29.86- 78.3-----
2024-06-16 07:00 pm S 18.1 20.0----29.86-0.09 78.1-----
2024-06-16 06:50 pm S 19.0 21.0----29.86- 78.4-----
2024-06-16 06:40 pm S 20.0 21.0----29.86- 78.8-----
2024-06-16 06:30 pm S 18.1 19.0----29.86- 78.6-----
2024-06-16 06:20 pm S 18.1 20.0----29.86- 78.6-----
2024-06-16 06:10 pm S 17.1 18.1----29.87- 77.9-----
2024-06-16 06:00 pm S 15.9 17.1----29.87-0.10 77.5-----
2024-06-16 05:50 pm S 15.9 18.1----29.87- 78.1-----